Location: Auckland
(36.8670°S, 174.7670°E)
Time: 13:38:43
(UTC+12:00)

NOSS 2-1 (E) - Pass Details

Date: 25 April 2019
Orbit: 471 x 1733 km, 63.3° (Epoch: 21 May)

Event Time Altitude Azimuth Distance (km) Brightness Sun altitude
Rises 19:36:24 0° 238° (WSW) 4,988 9.1 -23.2°
Reaches altitude 10° 19:43:22 10° 207° (SSW) 3,814 7.9 -24.6°
Maximum altitude 19:46:02 11° 191° (S) 3,608 7.6 -25.2°
Drops below altitude 10° 19:48:34 10° 174° (S) 3,592 7.4 -25.7°
Enters shadow 19:52:01 - 153° (SSE) 3,865 7.4 -26.4°
